sat.trackr.live / text

‹ back to catalog

STARLINK-11187 [DTC]

NORAD 60184 · 2024-124B

PAYLOAD ACTIVE UNKNOWN

§ Identity

Operator
Country
US
Launch date
2024-07-03
Launch site
AFETR
Launch vehicle
Mass (kg)
RCS (m²)

Purposes: comms

External: N2YO · Heavens-Above · Gunter

§ Orbital elements

Epoch: 2026-05-25T03:24:10.206720Z

Period
91.74 min
Inclination
53.1585°
Eccentricity
0.0001136
Mean motion
15.69706951 rev/d
Perigee alt
359.0 km
Apogee alt
360.5 km
Semi-major
6,737.9 km
B*
9.7470e-6
RAAN
144.2395°
Arg perigee
81.1170°
Mean anomaly
278.9976°
Rev number
10,854

§ Raw data

STARLINK-11187 [DTC]1 60184U 24124B   26145.14178480  .00000592  00000+0  97470-5 0  99902 60184  53.1585 144.2395 0001136  81.1170 278.9976 15.69706951108540

JSON: /api/v1/satellites/60184 · /tle

For live sub-satellite position, see the globe view (requires WebGL).

§ Visibility from observer

Set your observer location to see the next 7 days of passes ≥ 10°. The values pass through the URL so the page stays shareable.

No JS? Fill the form by hand. The geolocation button needs JavaScript.